STARLINK-32843, 62814

Orbit data source: Space-Track

STARLINK-32843, 62814 is a payload satellite owned by SpaceX/Seattle (US) in LEO that was launched on Fri, 24 Jan 2025 UTC via an FALCON 9 launch vehicle from the Air Force Western Test Range (AFWTR). Payload-class satellites include a variety of spacecraft equipped with specific instruments for various scientific and technological missions. These include communications satellites like Starlink; space stations such as the ISS; scientific satellites like the Hubble; Earth observation satellites from companies like Planet Labs, Umbra, and HawkEye 360; GPS; miniature CubeSats for education and research; and military/defense satellites.

Loading next visibility...
Identifier
62814, 2025-018J
Orbit
LEO
Country
Flag of USUS
Related business
Manufacturer
SpaceX/Seattle
Mission
Operational Commercial Communications
Bus & Motor
STARLINK V2M, Unknown motor
Mass
730 kg wet, ~700 kg dry
Launch date (UTC)
2025-01-24 (9 months ago)
Launch vehicle
FALCON 9
Launch site
Air Force Western Test Range (AFWTR)
Object type
Payload
Rocket body
Debris
Shape & HBR
Box + 2 Pan, 17.7 m
Radar Cross Section
33.884 m², Large (>1 m²)

Expand to show TLE details & history
Last TLE update: 6 hours ago

TLE from 6 hours ago
0 STARLINK-32843
1 62814U 25018J   25286.97183793  .00016621  00000-0  57238-3 0  9991
2 62814  53.1582 271.1989 0001536 102.6452 257.4720 15.30181098 40703
Epoch: 2025-10-13T23:19Z
TLE epoch observation values (Epoch: 2025-10-13T23:19:26.797Z)
Latitude
-0.00005°
Longitude
-101.42975°
Altitude
476.4 km
Speed
7.629 km/s
True Right ascension
18h 04m 47s
True Declination
0° 00' 00"
Sunlit
Object was in daylight at epoch
Visualization orbit readout
Latitude
Unknown
Longitude
Unknown
Altitude
Unknown
Speed
Unknown
Apparent Right ascension
Unknown
Apparent Declination
Unknown
Sunlit
N/A
Visualization observer readout
Local Sidereal Time
23:37:42
Azimuth
Unknown
Elevation
Unknown
Doppler factor
Unknown
Orbital elements
Apogee altitude
476.581 km
Perigee altitude
474.476 km
Semi-major axis
6,853.665 km
Eccentricity
0.00015
Inclination
53.1582°
RAAN
271.1989°
Arg. of periapsis
102.6452°
True anomaly
257.45482°
Mean anomaly
257.472°
Eccentric anomaly
257.46341°
Mean motion
3.82524 °/min
Orbital period
94.11 mins
BSTAR
0.00057238
Loading maneuver chart data...
Computing Atmospheric mass density...
Loading historical data...
Loading historical data...
Loading historical data...
Loading historical data...
Loading historical data...
Loading historical data...
Loading historical data...

Documentation

Showing up to 5 results
|